Freeland, MI

9:47 PM EST on February 13, 2016 (GMT -0500)
MBS International

Weather History for KMBS - May, 2013

Change the Weather History Date:

Thursday, May 23, 2013

  Actual Average Record
Temperature  
Mean Temperature 52 °F 60 °F  
Max Temperature 59 °F 70 °F 88 °F (2007)
Min Temperature 44 °F 49 °F 35 °F (2006)
Degree Days  
Heating Degree Days 13    
Month to date heating degree days 119  
Since 1 July heating degree days 6441  
Cooling Degree Days 0    
Month to date cooling degree days 44  
Year to date cooling degree days 45  
Growing Degree Days 4 (Base 50)    
Moisture  
Dew Point 49 °F    
Average Humidity 85    
Maximum Humidity 93    
Minimum Humidity 76    
Precipitation  
Precipitation 0.45 in 0.11 in 1.41 in (2004)
Month to date precipitation 2.30 2.55  
Year to date precipitation 15.48 10.82  
Snow  
Snow 0.00 in - - ()
Month to date snowfall T  
Since 1 July snowfall 43.5  
Snow Depth 0.00 in    
Sea Level Pressure  
Sea Level Pressure 29.88 in    
Wind  
Wind Speed 12 mph (NNE)    
Max Wind Speed 24 mph    
Max Gust Speed 29 mph    
Visibility 7 miles    
Events Rain    
T = Trace of Precipitation, MM = Missing Value Source: NWS Daily Summary

Daily Weather History Graph

Daily Weather History Graph

Search for Another Location

Airport or City:

Trip Planner

Search our weather history database for the weather conditions in past years. The results will help you decide how hot, cold, wet, or windy it might be!

Date:

Astronomy

May. 23, 2013 Rise Set
Actual Time 6:03 AM EDT 9:02 PM EDT
Civil Twilight 5:29 AM EDT 9:36 PM EDT
Nautical Twilight 4:46 AM EDT 10:20 PM EDT
Astronomical Twilight 3:55 AM EDT 11:12 PM EDT
Moon 7:32 PM EDT (5/23) 4:51 AM EDT (5/23)
Length of Visible Light 16h 07m
Length of Day
14h 58m
Waxing Gibbous, 97% of the Moon is Illuminated
May 23
Waxing Gibbous
May 25
Full
May 31
Last Quarter
Jun 8
New
Jun 16
First Quarter

Hourly Weather History & Observations

Time (EDT) Temp. Windchill Dew Point Humidity Pressure Visibility Wind Dir Wind Speed Gust Speed Precip Events Conditions
12:03 AM 62.6 °F - 57.2 °F 82% 29.66 in 10.0 mi West 11.5 mph - N/A   Mostly Cloudy
12:28 AM 62.6 °F - 57.2 °F 82% 29.66 in 10.0 mi WSW 6.9 mph - N/A   Mostly Cloudy
12:53 AM 60.1 °F - 57.0 °F 90% 29.67 in 6.0 mi North 6.9 mph - N/A   Overcast
1:07 AM 59.0 °F - 57.2 °F 94% 29.67 in 2.5 mi North 12.7 mph - 0.01 in Rain Light Rain
1:14 AM 57.2 °F - 55.4 °F 94% 29.68 in 4.0 mi North 11.5 mph - 0.01 in Rain Light Rain
1:53 AM 57.0 °F - 55.0 °F 93% 29.70 in 4.0 mi North 8.1 mph - 0.01 in   Overcast
2:22 AM 57.2 °F - 55.4 °F 94% 29.70 in 10.0 mi North 10.4 mph - N/A   Overcast
2:48 AM 57.2 °F - 55.4 °F 94% 29.71 in 10.0 mi North 6.9 mph - N/A   Overcast
2:53 AM 57.0 °F - 54.0 °F 89% 29.71 in 10.0 mi North 6.9 mph - N/A   Overcast
3:16 AM 57.2 °F - 53.6 °F 88% 29.71 in 10.0 mi North 8.1 mph - N/A   Overcast
3:45 AM 57.2 °F - 53.6 °F 88% 29.72 in 10.0 mi North 8.1 mph - N/A   Overcast
3:53 AM 57.0 °F - 54.0 °F 89% 29.72 in 10.0 mi NNE 8.1 mph - N/A   Overcast
4:11 AM 57.2 °F - 53.6 °F 88% 29.72 in 10.0 mi NNE 9.2 mph - N/A   Overcast
4:34 AM 55.4 °F - 53.6 °F 94% 29.73 in 10.0 mi NE 6.9 mph - N/A   Overcast
4:53 AM 55.9 °F - 54.0 °F 93% 29.73 in 9.0 mi NNE 9.2 mph - 0.01 in Rain Light Rain
5:12 AM 55.4 °F - 53.6 °F 94% 29.73 in 4.0 mi NNE 9.2 mph - 0.03 in Rain Rain
5:23 AM 55.4 °F - 53.6 °F 94% 29.74 in 4.0 mi NNE 6.9 mph - 0.05 in Rain Light Rain
5:53 AM 55.0 °F - 53.1 °F 93% 29.74 in 7.0 mi NNE 8.1 mph - 0.09 in Rain Light Rain
6:17 AM 55.4 °F - 53.6 °F 94% 29.75 in 1.5 mi NNE 11.5 mph - 0.01 in Rain Light Rain
6:28 AM 55.4 °F - 53.6 °F 94% 29.76 in 2.5 mi NNE 6.9 mph - 0.03 in Rain Light Rain
6:31 AM 55.4 °F - 53.6 °F 94% 29.76 in 7.0 mi NNE 8.1 mph - 0.03 in Rain Light Rain
6:53 AM 55.0 °F - 53.1 °F 93% 29.77 in 6.0 mi NE 6.9 mph - 0.05 in Rain Rain
7:07 AM 55.4 °F - 53.6 °F 94% 29.77 in 2.5 mi NE 11.5 mph - 0.03 in Rain Rain
7:20 AM 55.4 °F - 53.6 °F 94% 29.78 in 3.0 mi NE 6.9 mph - 0.07 in Rain Rain
7:53 AM 55.0 °F - 52.0 °F 89% 29.80 in 3.0 mi NE 9.2 mph - 0.12 in Rain Light Rain
8:32 AM 53.6 °F - 50.0 °F 88% 29.82 in 2.5 mi NE 17.3 mph 25.3 mph 0.05 in Rain Rain
8:53 AM 52.0 °F - 48.9 °F 89% 29.83 in 2.5 mi NE 18.4 mph 25.3 mph 0.06 in Rain Light Rain
9:02 AM 51.8 °F - 48.2 °F 88% 29.83 in 2.5 mi NE 21.9 mph 27.6 mph 0.00 in Rain Light Rain
9:07 AM 51.8 °F - 48.2 °F 88% 29.83 in 10.0 mi NE 23.0 mph 28.8 mph 0.01 in Rain Light Rain
9:53 AM 51.1 °F - 46.9 °F 86% 29.87 in 9.0 mi North 18.4 mph 25.3 mph 0.01 in Rain Light Rain
10:12 AM 50.0 °F - 46.4 °F 87% 29.88 in 3.0 mi NNE 19.6 mph 26.5 mph 0.02 in Rain Light Rain
10:25 AM 48.2 °F - 46.4 °F 93% 29.89 in 3.0 mi North 18.4 mph 26.5 mph 0.03 in Rain Light Rain
10:53 AM 48.9 °F - 46.0 °F 90% 29.90 in 3.0 mi NNE 19.6 mph 26.5 mph 0.05 in Rain Light Rain
11:53 AM 48.9 °F - 45.0 °F 86% 29.93 in 5.0 mi NNE 19.6 mph 27.6 mph 0.02 in Rain Light Rain
12:29 PM 48.2 °F - 44.6 °F 87% 29.94 in 2.0 mi NNE 18.4 mph 24.2 mph 0.00 in Rain Light Rain
12:53 PM 48.0 °F - 43.0 °F 83% 29.96 in 10.0 mi North 13.8 mph - 0.00 in Rain Light Rain
1:28 PM 46.4 °F 39.8 °F 42.8 °F 87% 29.97 in 2.0 mi North 16.1 mph 24.2 mph 0.00 in Rain Light Rain
1:53 PM 46.9 °F - 43.0 °F 86% 29.98 in 2.0 mi North 16.1 mph - 0.00 in Rain Light Rain
2:16 PM 46.4 °F 39.2 °F 42.8 °F 87% 29.98 in 2.0 mi NNE 18.4 mph - 0.00 in Rain Light Rain
2:28 PM 46.4 °F 40.1 °F 44.6 °F 93% 29.99 in 1.2 mi NNE 15.0 mph - 0.01 in Rain Light Rain
2:53 PM 46.9 °F - 44.1 °F 90% 30.00 in 1.2 mi NNE 15.0 mph 21.9 mph 0.02 in Rain Light Rain
3:35 PM 48.2 °F - 44.6 °F 87% 30.01 in 10.0 mi NNE 13.8 mph - 0.02 in Rain Light Rain
3:53 PM 48.9 °F - 45.0 °F 86% 30.02 in 2.5 mi NNE 15.0 mph 20.7 mph 0.02 in Rain Light Rain
4:32 PM 46.4 °F 39.0 °F 42.8 °F 87% 30.03 in 10.0 mi North 19.6 mph 24.2 mph 0.00 in Rain Light Rain
4:53 PM 46.9 °F - 43.0 °F 86% 30.05 in 10.0 mi North 12.7 mph - 0.00 in Rain Light Rain
5:16 PM 46.4 °F 40.1 °F 42.8 °F 87% 30.05 in 10.0 mi North 15.0 mph - 0.00 in   Overcast
5:42 PM 46.4 °F 40.4 °F 42.8 °F 87% 30.06 in 10.0 mi North 13.8 mph - 0.00 in   Overcast
5:53 PM 46.9 °F - 42.1 °F 83% 30.07 in 10.0 mi North 12.7 mph - 0.00 in Rain Light Rain
6:53 PM 48.0 °F - 41.0 °F 77% 30.09 in 10.0 mi North 13.8 mph - 0.00 in   Overcast
7:17 PM 48.2 °F - 41.0 °F 76% 30.10 in 10.0 mi North 11.5 mph - N/A   Overcast
7:40 PM 48.2 °F - 42.8 °F 82% 30.11 in 10.0 mi North 11.5 mph - N/A   Overcast
7:53 PM 48.0 °F - 42.1 °F 80% 30.12 in 10.0 mi NNW 6.9 mph - N/A   Overcast
8:02 PM 48.2 °F - 42.8 °F 82% 30.11 in 10.0 mi North 6.9 mph - N/A   Overcast
8:53 PM 48.0 °F - 41.0 °F 77% 30.14 in 10.0 mi NW 5.8 mph - N/A   Overcast
9:53 PM 46.9 °F - 41.0 °F 80% 30.16 in 10.0 mi Calm Calm - N/A   Mostly Cloudy
10:53 PM 46.9 °F - 42.1 °F 83% 30.18 in 10.0 mi NW 5.8 mph - N/A   Overcast
11:53 PM 46.9 °F - 39.0 °F 74% 30.19 in 10.0 mi NNW 15.0 mph - N/A   Overcast